Hagerstown, MD

2:56 AM EST on February 27, 2017 (GMT -0500)
Hagerstown Regional-Henson

Weather History for KHGR - March, 2015

Change the Weather History Date:

Saturday, March 28, 2015

  Actual Average Record
Temperature  
Mean Temperature 29 °F 46 °F  
Max Temperature 35 °F 56 °F 80 °F (1998)
Min Temperature 23 °F 36 °F 23 °F (2011)
Degree Days  
Heating Degree Days 36 19  
Month to date heating degree days 721 672  
Since 1 July heating degree days 4727 4575  
Cooling Degree Days 0 0  
Month to date cooling degree days 0 0  
Year to date cooling degree days 0 0  
Moisture  
Dew Point 10 °F    
Average Humidity 48    
Maximum Humidity 63    
Minimum Humidity 33    
Precipitation  
Precipitation 0.00 in 0.13 in 0.98 in (2005)
Month to date precipitation 2.26 2.95  
Year to date precipitation 4.54 8.18  
Sea Level Pressure  
Sea Level Pressure 30.07 in    
Wind  
Wind Speed 17 mph (NW)    
Max Wind Speed 28 mph    
Max Gust Speed 38 mph    
Visibility 10 miles    
Events      
T = Trace of Precipitation, MM = Missing Value Source: NWS Daily Summary

Daily Weather History Graph

Daily Weather History Graph

Search for Another Location

Airport or City:

Trip Planner

Search our weather history database for the weather conditions in past years. The results will help you decide how hot, cold, wet, or windy it might be!

Date:

Astronomy

Mar. 28, 2015 Rise Set
Actual Time 7:01 AM EDT 7:30 PM EDT
Civil Twilight 6:34 AM EDT 7:57 PM EDT
Nautical Twilight 6:03 AM EDT 8:29 PM EDT
Astronomical Twilight 5:30 AM EDT 9:02 PM EDT
Moon 1:30 PM EDT (3/28) 3:04 AM EDT (3/28)
Length of Visible Light 13h 23m
Length of Day
12h 28m
Waxing Gibbous, 63% of the Moon is Illuminated
Mar 28
Waxing Gibbous
Apr 4
Full
Apr 11
Last Quarter
Apr 18
New
Apr 25
First Quarter

Hourly Weather History & Observations

Time (EDT) Temp. Windchill Dew Point Humidity Pressure Visibility Wind Dir Wind Speed Gust Speed Precip Events Conditions
12:53 AM 32.0 °F 23.6 °F 21.0 °F 64% 29.92 in 10.0 mi NW 10.4 mph - N/A   Clear
1:53 AM 30.9 °F 21.7 °F 16.0 °F 54% 29.92 in 10.0 mi NW 11.5 mph - N/A   Mostly Cloudy
2:53 AM 30.9 °F 20.7 °F 17.1 °F 57% 29.92 in 10.0 mi NW 13.8 mph - N/A   Overcast
3:53 AM 30.0 °F 20.0 °F 15.1 °F 54% 29.92 in 10.0 mi NNW 12.7 mph - N/A   Overcast
4:53 AM 28.0 °F 16.5 °F 12.9 °F 53% 29.94 in 10.0 mi NW 15.0 mph - N/A   Scattered Clouds
5:53 AM 25.0 °F 10.9 °F 10.0 °F 53% 29.96 in 10.0 mi NW 19.6 mph - N/A   Clear
6:53 AM 24.1 °F 12.5 °F 8.1 °F 51% 29.99 in 10.0 mi NW 12.7 mph - N/A   Clear
7:53 AM 24.1 °F 13.7 °F 6.1 °F 46% 30.02 in 10.0 mi NW 10.4 mph - N/A   Clear
8:53 AM 26.1 °F 13.1 °F 8.1 °F 47% 30.04 in 10.0 mi WNW 17.3 mph - N/A   Clear
9:53 AM 27.0 °F 13.9 °F 7.0 °F 43% 30.06 in 10.0 mi NW 18.4 mph - N/A   Partly Cloudy
10:53 AM 28.0 °F 14.6 °F 9.0 °F 45% 30.07 in 10.0 mi NW 20.7 mph 25.3 mph N/A   Overcast
11:53 AM 30.0 °F 17.9 °F 10.0 °F 43% 30.07 in 10.0 mi NW 18.4 mph - N/A   Overcast
12:53 PM 30.0 °F 17.9 °F 10.0 °F 43% 30.07 in 10.0 mi NW 18.4 mph 25.3 mph N/A   Overcast
1:53 PM 30.9 °F 18.1 °F 9.0 °F 40% 30.06 in 10.0 mi NW 21.9 mph 26.5 mph N/A   Overcast
2:53 PM 34.0 °F 20.8 °F 10.0 °F 37% 30.07 in 10.0 mi NW 27.6 mph 32.2 mph N/A   Overcast
3:53 PM 33.1 °F 20.1 °F 8.1 °F 35% 30.09 in 10.0 mi WNW 25.3 mph 32.2 mph N/A   Overcast
4:53 PM 30.9 °F 17.8 °F 8.1 °F 38% 30.11 in 10.0 mi WNW 23.0 mph 28.8 mph N/A   Overcast
5:53 PM 28.9 °F 15.8 °F 9.0 °F 43% 30.14 in 10.0 mi NW 20.7 mph 28.8 mph N/A   Mostly Cloudy
6:53 PM 28.9 °F 15.8 °F 9.0 °F 43% 30.17 in 10.0 mi WNW 20.7 mph 25.3 mph N/A   Scattered Clouds
7:53 PM 27.0 °F 15.2 °F 9.0 °F 47% 30.20 in 10.0 mi WNW 15.0 mph - N/A   Clear
8:53 PM 27.0 °F 15.2 °F 9.0 °F 47% 30.23 in 10.0 mi WNW 15.0 mph - N/A   Clear
9:53 PM 27.0 °F 13.9 °F 6.1 °F 41% 30.25 in 10.0 mi NW 18.4 mph - N/A   Clear
10:53 PM 27.0 °F 15.2 °F 1.9 °F 34% 30.27 in 10.0 mi NW 15.0 mph - N/A   Clear
11:53 PM 25.0 °F 14.2 °F 1.9 °F 37% 30.30 in 10.0 mi NW 11.5 mph - N/A   Clear